Hourly Data Report for October 12, 2016

All times are specified in Local Standard Time (LST). Add 1 hour to adjust for Daylight Saving Time where and when it is observed.

BATHURST A
NEW BRUNSWICK

47°37'47.000" N
65°44'20.000" W
58.80 m
8100505
71574
ZBF

Download Data

Hourly Data (October 2016)
Hourly Data Report for October 12, 2016
Temp Definition
°C
Dew Point Temp Definition
°C
Rel Hum Definition
%
Wind Dir Definition
10's deg

Wind Spd Definition
km/h
Visibility Definition
km
Stn Press Definition
kPa
Hmdx Definition


Wind Chill Definition


Weather Definition


TIME
00:00 Legend Double Dagger 2.0 0.7 91   0 24.1 101.91     LegendNANA
01:00 Legend Double Dagger 1.4 0.2 92 22 3 24.1 101.91     LegendNANA
02:00 Legend Double Dagger 1.6 0.1 90 27 5 24.1 101.92     Clear
03:00 Legend Double Dagger 0.1 -0.9 93 23 4 24.1 101.92     LegendNANA
04:00 Legend Double Dagger -0.4 -1.3 94 24 6 24.1 101.92   -2 LegendNANA
05:00 Legend Double Dagger -0.4 -0.8 97 19 6 24.1 101.96   -2 Clear
06:00 Legend Double Dagger -1.2 -1.8 96 36 3 24.1 101.95   -2 LegendNANA
07:00 Legend Double Dagger -0.3 -1.0 95 25 3 24.1 101.96   -1 LegendNANA
08:00 Legend Double Dagger 3.7 1.1 83 36 1 24.1 101.98     Mostly Cloudy
09:00 Legend Double Dagger 7.8 2.9 71 0 1 24.1 101.99     LegendNANA
10:00 Legend Double Dagger 12.3 2.5 51 36 2 24.1 101.99     LegendNANA
11:00 Legend Double Dagger 14.3 3.2 47 10 7 24.1 101.93     Mostly Cloudy
12:00 Legend Double Dagger 16.6 4.1 43 8 11 24.1 101.85     LegendNANA
13:00 Legend Double Dagger 16.5 6.1 50 6 9 24.1 101.76     LegendNANA
14:00 Legend Double Dagger 14.9 6.3 56 6 7 24.1 101.71     Cloudy
15:00 Legend Double Dagger 14.4 5.6 55 7 8 24.1 101.68     LegendNANA
16:00 Legend Double Dagger 14.1 6.5 60 7 4 24.1 101.67     LegendNANA
17:00 Legend Double Dagger 13.0 6.6 65 11 4 24.1 101.61     Mostly Cloudy
18:00 Legend Double Dagger 15.7 6.0 52 18 11 24.1 101.58     LegendNANA
19:00 Legend Double Dagger 15.8 5.5 50 19 14 24.1 101.57     LegendNANA
20:00 Legend Double Dagger 15.2 5.2 51 20 16 24.1 101.57     Cloudy
21:00 Legend Double Dagger 14.6 4.7 51 19 11 24.1 101.55     LegendNANA
22:00 Legend Double Dagger 13.0 4.7 57 19 11 24.1 101.52     LegendNANA
23:00 Legend Double Dagger 11.5 5.0 64 19 11 24.1 101.49     Mostly Cloudy

Notes on Data Quality.

Legend

  • E = Estimated
  • M = Missing
  • NA = Not Available
  • ‡ = Partner data that is not subject to review by the National Climate Archives
Date modified: